This demonstration page uses our WeatherBlox Daily Observations layout. Learn more.

Left ArrowRight Arrow

Hourly Observations for July 7, 2022

Temp ( °F °C ) Dew Point ( °F °C ) Humidity (%) Winds ( mph kmh ) Pressure ( in mb ) Visibility ( mi km ) Precip ( " mm )
12:53 am 00:53 Cloudy 74 23.3 73 22.8 97 97 Calm 29.96 1015 10 16 0.00 0.00
1:48 am 01:48 Cloudy 73 23 73 23 100 100 Calm 29.97 1015 10 16 0.00 0.00
1:53 am 01:53 Cloudy 74 23.3 73 22.8 97 97 Calm 29.96 1015 10 16 0.00 0.00
2:53 am 02:53 Cloudy 74 23.3 72 22.2 94 94 Calm 29.97 1015 10 16 0.00 0.00
3:17 am 03:17 Partly Cloudy 73 22.8 71 21.7 94 94 Calm 29.95 1014 10 16 0.00 0.00
3:53 am 03:53 Mostly Clear 71 21.7 69 20.6 94 94 NNE 3 6 29.97 1015 10 16 0.00 0.00
4:06 am 04:06 Partly Cloudy 72 22.2 70 21.1 94 94 Calm 29.97 1015 10 16 0.00 0.00
4:12 am 04:12 Mostly Cloudy 73 22.8 71 21.7 94 94 Calm 29.98 1015 10 16 0.00 0.00
4:27 am 04:27 Cloudy 73 22.8 71 21.7 94 94 NE 3 6 29.98 1015 10 16 0.00 0.00
4:53 am 04:53 Cloudy 73 22.8 70 21.1 90 90 NNE 5 7 29.99 1016 10 16 0.00 0.00
5:09 am 05:09 Cloudy 73 22.8 70 21.1 90 90 NNE 5 7 29.98 1015 10 16 0.00 0.00
5:53 am 05:53 Cloudy 72 22.2 69 20.6 91 91 Calm 30.00 1016 10 16 0.00 0.00
6:53 am 06:53 Cloudy 72 22.2 69 20.6 91 91 NNE 6 9 30.01 1016 10 16 0.00 0.00
7:39 am 07:39 Partly Cloudy 74 23.3 69 20.6 85 85 NE 5 7 30.00 1016 10 16 0.00 0.00
7:53 am 07:53 Sunny 75 23.9 69 20.6 82 82 NNE 5 7 30.01 1016 10 16 0.00 0.00
8:53 am 08:53 Sunny 76 24.4 69 20.6 79 79 NE 5 7 30.02 1017 10 16 0.00 0.00
9:53 am 09:53 Partly Cloudy 78 25.6 70 21.1 76 76 VRB 7 11 30.02 1017 10 16 0.00 0.00
10:11 am 10:11 Mostly Cloudy 80 26.7 70 21.1 71 71 ENE 7 11 30.00 1016 10 16 0.00 0.00
10:18 am 10:18 Partly Cloudy 79 26.1 69 20.6 72 72 ENE 7 11 30.00 1016 10 16 0.00 0.00
10:53 am 10:53 Mostly Sunny 81 27.2 71 21.7 72 72 VRB 3 6 30.02 1017 10 16 0.00 0.00
11:53 am 11:53 Mostly Sunny 81 27.2 69 20.6 67 67 E 5 7 30.02 1017 10 16 0.00 0.00
12:53 pm 12:53 Partly Cloudy 82 27.8 69 20.6 65 65 Calm 30.02 1017 10 16 0.00 0.00
1:53 pm 13:53 Mostly Cloudy 84 28.9 71 21.7 65 65 Calm 30.02 1017 10 16 0.00 0.00
2:53 pm 14:53 Mostly Sunny 86 30 70 21.1 59 59 Calm 30.00 1016 10 16 0.00 0.00
3:53 pm 15:53 Partly Cloudy 87 30.6 70 21.1 57 57 VRB 3 6 29.99 1016 10 16 0.00 0.00
4:53 pm 16:53 Sunny 88 31.1 69 20.6 54 54 VRB 3 6 29.98 1015 10 16 0.00 0.00
5:53 pm 17:53 Partly Cloudy 86 30 69 20.6 57 57 NNW 5 7 29.98 1015 10 16 0.00 0.00
6:53 pm 18:53 Sunny 85 29.4 68 20 57 57 N 6 9 29.96 1015 10 16 0.00 0.00
7:53 pm 19:53 Sunny 83 28.3 68 20 61 61 E 7 11 29.94 1014 10 16 0.00 0.00
8:53 pm 20:53 Sunny 81 27.2 66 18.9 61 61 ESE 7 11 29.94 1014 10 16 0.00 0.00
9:53 pm 21:53 Mostly Clear 79 26.1 67 19.4 67 67 ESE 3 6 29.98 1015 10 16 0.00 0.00
10:53 pm 22:53 Mostly Cloudy 78 25.6 67 19.4 69 69 ESE 3 6 29.99 1016 10 16 0.00 0.00
11:53 pm 23:53 Clear 73 22.8 68 20 84 84 Calm 30.00 1016 10 16 0.00 0.00

Powered by AerisWeather